N062SB LSGS-LSGG

Flight info

Callsign N062SB
Flight time 0h 30m
Altitude 14000
Route GOLEB
Aircraft DA62/L-SDFGRY/C

Departure

Time 2026-05-07 16:02
Airport Sion Airport (LSGS)

Arrival

Time 2026-05-07 16:32
Airport Geneva International Airport (LSGG)
Time Latitude Longitude Altitude Speed Heading
2026-05-07 15:59 46.21741 7.32397 1593 ft 0 kts 342°
2026-05-07 16:00 46.21764 7.32402 1594 ft 12 kts 18°
2026-05-07 16:00 46.21754 7.32345 1593 ft 9 kts 81°
2026-05-07 16:00 46.21803 7.32479 1594 ft 15 kts 72°
2026-05-07 16:01 46.21874 7.32541 1596 ft 13 kts 340°
2026-05-07 16:01 46.21854 7.32332 1595 ft 49 kts 251°
2026-05-07 16:01 46.21703 7.31611 1684 ft 82 kts 254°
2026-05-07 16:01 46.21585 7.30843 1920 ft 89 kts 252°
2026-05-07 16:02 46.21417 7.29975 2197 ft 92 kts 253°
2026-05-07 16:02 46.21238 7.29073 2433 ft 97 kts 252°
2026-05-07 16:02 46.21052 7.28121 2666 ft 101 kts 253°
2026-05-07 16:02 46.20858 7.27137 2898 ft 103 kts 252°
2026-05-07 16:03 46.20663 7.26150 3120 ft 102 kts 252°
2026-05-07 16:03 46.20470 7.25163 3346 ft 102 kts 252°
2026-05-07 16:03 46.20278 7.24180 3570 ft 102 kts 252°
2026-05-07 16:03 46.20086 7.23205 3795 ft 101 kts 252°
2026-05-07 16:04 46.19758 7.22326 4018 ft 100 kts 229°
2026-05-07 16:04 46.19299 7.21570 4245 ft 100 kts 227°
2026-05-07 16:04 46.18804 7.20778 4422 ft 113 kts 227°
2026-05-07 16:04 46.18265 7.19919 4654 ft 118 kts 227°
2026-05-07 16:05 46.17710 7.19032 4886 ft 121 kts 227°
2026-05-07 16:05 46.17133 7.18114 5114 ft 124 kts 227°
2026-05-07 16:05 46.16547 7.17179 5343 ft 127 kts 227°
2026-05-07 16:05 46.15965 7.16216 5567 ft 129 kts 236°
2026-05-07 16:06 46.15561 7.15063 5797 ft 130 kts 240°
2026-05-07 16:06 46.15102 7.13944 6022 ft 131 kts 236°
2026-05-07 16:06 46.14589 7.12844 6249 ft 132 kts 234°
2026-05-07 16:06 46.14052 7.11770 6476 ft 132 kts 233°
2026-05-07 16:07 46.13503 7.10707 6700 ft 133 kts 232°
2026-05-07 16:07 46.12949 7.09653 6922 ft 134 kts 232°
2026-05-07 16:07 46.12383 7.08583 7149 ft 134 kts 232°
2026-05-07 16:07 46.11820 7.07520 7373 ft 134 kts 232°
2026-05-07 16:08 46.11253 7.06453 7597 ft 135 kts 232°
2026-05-07 16:08 46.10678 7.05370 7823 ft 135 kts 232°
2026-05-07 16:08 46.10107 7.04301 8047 ft 135 kts 232°
2026-05-07 16:08 46.09537 7.03239 8269 ft 136 kts 232°
2026-05-07 16:09 46.08961 7.02162 8494 ft 136 kts 232°
2026-05-07 16:09 46.08384 7.01082 8718 ft 136 kts 232°
2026-05-07 16:09 46.07808 7.00005 8942 ft 137 kts 232°
2026-05-07 16:09 46.07226 6.98918 9167 ft 137 kts 232°
2026-05-07 16:10 46.06646 6.97834 9392 ft 137 kts 232°
2026-05-07 16:10 46.06060 6.96740 9617 ft 137 kts 232°
2026-05-07 16:10 46.05478 6.95652 9841 ft 138 kts 232°
2026-05-07 16:10 46.04892 6.94558 10067 ft 138 kts 232°
2026-05-07 16:11 46.04304 6.93461 10292 ft 138 kts 232°
2026-05-07 16:11 46.03719 6.92368 10516 ft 138 kts 232°
2026-05-07 16:11 46.03134 6.91277 10740 ft 139 kts 232°
2026-05-07 16:11 46.02547 6.90183 10963 ft 139 kts 232°
2026-05-07 16:12 46.01972 6.89052 11189 ft 139 kts 234°
2026-05-07 16:12 46.01417 6.87912 11414 ft 140 kts 234°
2026-05-07 16:12 46.00859 6.86766 11638 ft 141 kts 234°
2026-05-07 16:12 46.00298 6.85614 11863 ft 141 kts 234°
2026-05-07 16:13 45.99731 6.84452 12089 ft 142 kts 234°
2026-05-07 16:13 45.99169 6.83298 12311 ft 142 kts 234°
2026-05-07 16:13 45.98597 6.82128 12536 ft 142 kts 234°
2026-05-07 16:13 45.98034 6.80976 12758 ft 142 kts 234°
2026-05-07 16:14 45.97462 6.79806 12984 ft 142 kts 234°
2026-05-07 16:14 45.96890 6.78635 13209 ft 142 kts 234°
2026-05-07 16:14 45.96301 6.77434 13227 ft 156 kts 234°
2026-05-07 16:14 45.95655 6.76115 13222 ft 166 kts 234°
2026-05-07 16:15 45.95242 6.74557 13210 ft 172 kts 272°
2026-05-07 16:15 45.95723 6.72996 13219 ft 177 kts 309°
2026-05-07 16:15 45.96540 6.71652 13216 ft 180 kts 310°
2026-05-07 16:15 45.97355 6.70289 13214 ft 181 kts 309°
2026-05-07 16:16 45.98166 6.68905 13213 ft 182 kts 309°
2026-05-07 16:16 45.98979 6.67475 13213 ft 183 kts 308°
2026-05-07 16:16 45.99778 6.66044 13212 ft 184 kts 308°
2026-05-07 16:16 46.00561 6.64628 13212 ft 184 kts 308°
2026-05-07 16:17 46.01363 6.63172 13212 ft 184 kts 307°
2026-05-07 16:17 46.02157 6.61729 13212 ft 184 kts 307°
2026-05-07 16:17 46.02950 6.60287 13212 ft 184 kts 308°
2026-05-07 16:17 46.03740 6.58848 13212 ft 184 kts 308°
2026-05-07 16:18 46.04494 6.57366 13203 ft 184 kts 294°
2026-05-07 16:18 46.04831 6.55600 13215 ft 183 kts 283°
2026-05-07 16:18 46.05067 6.53793 13213 ft 183 kts 279°
2026-05-07 16:18 46.05267 6.51996 13213 ft 183 kts 278°
2026-05-07 16:19 46.05458 6.50170 13212 ft 183 kts 278°
2026-05-07 16:19 46.05644 6.48368 13213 ft 183 kts 278°
2026-05-07 16:19 46.05827 6.46567 13213 ft 183 kts 278°
2026-05-07 16:19 46.06012 6.44751 13162 ft 186 kts 278°
2026-05-07 16:20 46.06204 6.42858 12966 ft 194 kts 278°
2026-05-07 16:20 46.06401 6.40909 12771 ft 199 kts 278°
2026-05-07 16:20 46.06603 6.38923 12573 ft 202 kts 278°
2026-05-07 16:20 46.06806 6.36910 12374 ft 203 kts 278°
2026-05-07 16:21 46.06842 6.36549 12338 ft 204 kts 278°
2026-05-07 16:21 46.06888 6.36104 12294 ft 204 kts 278°
2026-05-07 16:22 46.07021 6.34783 12164 ft 205 kts 277°
2026-05-07 16:22 46.07227 6.32743 11964 ft 205 kts 277°
2026-05-07 16:22 46.07431 6.30710 11764 ft 206 kts 277°
2026-05-07 16:22 46.07634 6.28678 11565 ft 206 kts 277°
2026-05-07 16:23 46.07841 6.26622 11309 ft 208 kts 277°
2026-05-07 16:23 46.08047 6.24559 11063 ft 208 kts 277°
2026-05-07 16:23 46.08247 6.22546 11013 ft 199 kts 277°
2026-05-07 16:23 46.08443 6.20594 10882 ft 197 kts 277°
2026-05-07 16:24 46.08634 6.18670 10678 ft 193 kts 277°
2026-05-07 16:24 46.08822 6.16770 10475 ft 191 kts 277°
2026-05-07 16:24 46.08968 6.14876 10271 ft 189 kts 270°
2026-05-07 16:24 46.09108 6.13011 10070 ft 188 kts 277°
2026-05-07 16:25 46.09271 6.11146 9869 ft 187 kts 276°
2026-05-07 16:25 46.09242 6.09296 9656 ft 186 kts 249°
2026-05-07 16:25 46.08779 6.07593 9468 ft 184 kts 246°
2026-05-07 16:25 46.08242 6.05921 9261 ft 184 kts 253°
2026-05-07 16:26 46.07882 6.04140 9063 ft 184 kts 252°
2026-05-07 16:26 46.07541 6.02374 8862 ft 184 kts 255°
2026-05-07 16:26 46.07710 6.00594 8633 ft 186 kts 301°
2026-05-07 16:26 46.08649 5.99335 8442 ft 186 kts 322°
2026-05-07 16:27 46.09677 5.98224 8242 ft 186 kts 323°
2026-05-07 16:27 46.10733 5.97130 8042 ft 186 kts 323°
2026-05-07 16:27 46.11785 5.96037 7840 ft 186 kts 323°
2026-05-07 16:27 46.12835 5.94951 7640 ft 186 kts 323°
2026-05-07 16:28 46.13942 5.94009 7416 ft 187 kts 345°
2026-05-07 16:28 46.15211 5.94156 7223 ft 186 kts 12°
2026-05-07 16:28 46.16404 5.94805 6997 ft 185 kts 41°
2026-05-07 16:28 46.16993 5.96410 6803 ft 183 kts 74°
2026-05-07 16:29 46.17351 5.98170 6597 ft 183 kts 75°
2026-05-07 16:29 46.17727 5.99864 6286 ft 162 kts 70°
2026-05-07 16:29 46.18179 6.01261 5406 ft 157 kts 62°
2026-05-07 16:29 46.18685 6.02583 4484 ft 147 kts 61°
2026-05-07 16:30 46.19233 6.03711 3729 ft 136 kts 54°
2026-05-07 16:30 46.19772 6.04755 3054 ft 128 kts 53°
2026-05-07 16:30 46.20318 6.05694 2498 ft 122 kts 47°
2026-05-07 16:30 46.20887 6.06534 2036 ft 111 kts 46°
2026-05-07 16:31 46.21381 6.07287 1807 ft 101 kts 46°
2026-05-07 16:31 46.21851 6.07992 1661 ft 95 kts 48°
2026-05-07 16:31 46.22301 6.08673 1517 ft 92 kts 47°
2026-05-07 16:31 46.22739 6.09322 1398 ft 82 kts 46°
2026-05-07 16:32 46.23045 6.09779 1389 ft 43 kts 45°
2026-05-07 16:32 46.23217 6.10018 1383 ft 31 kts 45°
2026-05-07 16:32 46.23316 6.10098 1379 ft 8 kts 342°
2026-05-07 16:32 46.23330 6.10084 1379 ft 0 kts 317°
2026-05-07 16:33 46.23338 6.10074 1380 ft 1 kts 316°
2026-05-07 16:33 46.23349 6.10059 1380 ft 10 kts 315°
2026-05-07 16:33 46.23435 6.09935 1386 ft 19 kts 316°
2026-05-07 16:33 46.23521 6.09922 1387 ft 16 kts 46°
2026-05-07 16:34 46.23609 6.10045 1383 ft 17 kts 42°
2026-05-07 16:34 46.23712 6.10037 1384 ft 12 kts 321°
2026-05-07 16:34 46.23683 6.09965 1386 ft 10 kts 224°
2026-05-07 16:34 46.23660 6.09913 1388 ft 0 kts 300°